Bad Axe, MI

7:54 AM EST on February 27, 2017 (GMT -0500)
Huron County Memorial

Weather History for KBAX - March, 2014

Change the Weather History Date:

Monday, March 10, 2014

  Actual Average (KP58) Record (KP58)
Temperature  
Mean Temperature 38 °F -  
Max Temperature 46 °F 33 °F 51 °F (2013)
Min Temperature 30 °F 21 °F 5 °F (2003)
Degree Days  
Heating Degree Days 27    
Moisture  
Dew Point 31 °F    
Average Humidity 73    
Maximum Humidity 90    
Minimum Humidity 58    
Precipitation  
Precipitation 0.00 in - - ()
Sea Level Pressure  
Sea Level Pressure 29.60 in    
Wind  
Wind Speed 11 mph (WSW)    
Max Wind Speed 18 mph    
Max Gust Speed 26 mph    
Visibility 8 miles    
Events      
Averages and records for this station are not official NWS values.
T = Trace of Precipitation, MM = Missing Value Source: NWS Daily Summary

Daily Weather History Graph

Daily Weather History Graph

Search for Another Location

Airport or City:

Trip Planner

Search our weather history database for the weather conditions in past years. The results will help you decide how hot, cold, wet, or windy it might be!

Date:

Astronomy

Mar. 10, 2014 Rise Set
Actual Time 7:53 AM EDT 7:32 PM EDT
Civil Twilight 7:24 AM EDT 8:00 PM EDT
Nautical Twilight 6:51 AM EDT 8:34 PM EDT
Astronomical Twilight 6:17 AM EDT 9:07 PM EDT
Moon 2:06 PM EDT (3/10) 4:11 AM EDT (3/10)
Length of Visible Light 12h 36m
Length of Day
11h 38m
Waxing Gibbous, 70% of the Moon is Illuminated
Mar 10
Waxing Gibbous
Mar 16
Full
Mar 23
Last Quarter
Mar 30
New
Apr 7
First Quarter

Hourly Weather History & Observations

Time (EDT) Temp. Windchill Dew Point Humidity Pressure Visibility Wind Dir Wind Speed Gust Speed Precip Events Conditions
12:16 AM 33.3 °F 22.5 °F 25.3 °F 73% 29.75 in 10.0 mi WSW 17.3 mph 26.5 mph N/A   Overcast
12:37 AM 33.3 °F 22.5 °F 25.7 °F 74% 29.74 in 10.0 mi WSW 17.3 mph 25.3 mph N/A   Overcast
12:57 AM 33.3 °F 23.2 °F 25.7 °F 74% 29.74 in 10.0 mi WSW 15.0 mph 20.7 mph N/A   Overcast
1:16 AM 33.4 °F 23.9 °F 26.2 °F 75% 29.73 in 10.0 mi WSW 13.8 mph 19.6 mph N/A   Overcast
1:37 AM 33.8 °F 24.8 °F 26.6 °F 75% 29.73 in 10.0 mi WSW 12.7 mph 20.7 mph N/A   Overcast
1:57 AM 33.4 °F 23.5 °F 27.0 °F 77% 29.72 in 10.0 mi WSW 15.0 mph - N/A   Scattered Clouds
2:16 AM 33.4 °F 23.9 °F 27.3 °F 78% 29.72 in 10.0 mi WSW 13.8 mph 18.4 mph N/A   Clear
2:37 AM 33.6 °F 25.6 °F 27.5 °F 78% 29.72 in 10.0 mi WSW 10.4 mph 16.1 mph N/A   Clear
2:57 AM 33.8 °F 25.3 °F 28.4 °F 81% 29.72 in 10.0 mi WSW 11.5 mph 17.3 mph N/A   Clear
3:16 AM 34.2 °F 25.7 °F 28.9 °F 81% 29.71 in 10.0 mi WSW 11.5 mph 17.3 mph N/A   Mostly Cloudy
3:37 AM 34.3 °F 26.5 °F 29.3 °F 82% 29.70 in 10.0 mi WSW 10.4 mph 16.1 mph N/A   Overcast
3:57 AM 34.7 °F 27.5 °F 29.3 °F 81% 29.70 in 10.0 mi WSW 9.2 mph - N/A   Overcast
4:17 AM 34.7 °F 28.1 °F 29.8 °F 82% 29.69 in 10.0 mi WSW 8.1 mph - N/A   Mostly Cloudy
4:37 AM 34.7 °F 28.1 °F 30.0 °F 83% 29.69 in 10.0 mi WSW 8.1 mph - N/A   Mostly Cloudy
4:57 AM 34.7 °F 28.8 °F 30.2 °F 84% 29.67 in 7.0 mi SW 6.9 mph - N/A   Scattered Clouds
5:17 AM 34.7 °F 28.8 °F 30.2 °F 84% 29.67 in 7.0 mi WSW 6.9 mph - N/A   Scattered Clouds
5:37 AM 34.7 °F 28.8 °F 30.6 °F 85% 29.67 in 7.0 mi WSW 6.9 mph - N/A   Mostly Cloudy
5:57 AM 34.7 °F 29.6 °F 30.6 °F 85% 29.67 in 7.0 mi WSW 5.8 mph - N/A   Mostly Cloudy
6:17 AM 34.9 °F 30.8 °F 30.7 °F 85% 29.67 in 7.0 mi WSW 4.6 mph - N/A   Mostly Cloudy
6:37 AM 34.9 °F 32.0 °F 30.7 °F 85% 29.67 in 7.0 mi WSW 3.5 mph - N/A   Mostly Cloudy
6:57 AM 34.9 °F 30.8 °F 30.7 °F 85% 29.67 in 7.0 mi WSW 4.6 mph - N/A   Mostly Cloudy
7:17 AM 34.9 °F 30.8 °F 30.7 °F 85% 29.66 in 7.0 mi SW 4.6 mph - N/A   Mostly Cloudy
7:37 AM 34.7 °F 30.6 °F 30.4 °F 84% 29.66 in 7.0 mi SW 4.6 mph - N/A   Scattered Clouds
7:57 AM 33.3 °F 28.9 °F 29.5 °F 86% 29.65 in 5.0 mi SW 4.6 mph - N/A   Clear
8:17 AM 30.7 °F 27.3 °F 27.0 °F 86% 29.65 in 4.0 mi SSW 3.5 mph - N/A   Clear
8:37 AM 31.1 °F 26.4 °F 28.2 °F 89% 29.64 in 4.0 mi SSW 4.6 mph - N/A   Clear
8:57 AM 32.7 °F 28.3 °F 30.0 °F 90% 29.65 in 5.0 mi SW 4.6 mph - N/A   Clear
9:17 AM 33.1 °F 30.0 °F 28.9 °F 85% 29.65 in 5.0 mi SW 3.5 mph - N/A   Mostly Cloudy
9:37 AM 34.0 °F 29.8 °F 29.8 °F 85% 29.65 in 5.0 mi SW 4.6 mph - N/A   Mostly Cloudy
9:58 AM 36.3 °F 32.5 °F 30.7 °F 80% 29.64 in 5.0 mi SW 4.6 mph - N/A   Haze
10:17 AM 37.0 °F 32.4 °F 31.1 °F 79% 29.63 in 5.0 mi SW 5.8 mph - N/A   Haze
10:37 AM 38.7 °F 33.6 °F 31.6 °F 76% 29.63 in 5.0 mi SW 6.9 mph - N/A   Haze
10:58 AM 39.2 °F 34.2 °F 31.8 °F 75% 29.63 in 5.0 mi WSW 6.9 mph - N/A   Haze
11:17 AM 40.1 °F 34.7 °F 31.8 °F 72% 29.63 in 5.0 mi WSW 8.1 mph - N/A   Haze
11:37 AM 40.1 °F 34.7 °F 31.8 °F 72% 29.61 in 5.0 mi SW 8.1 mph - N/A   Haze
11:58 AM 39.7 °F 33.2 °F 32.0 °F 74% 29.61 in 5.0 mi SSW 10.4 mph - N/A   Haze
12:17 PM 40.1 °F 33.6 °F 32.0 °F 73% 29.59 in 5.0 mi SSW 10.4 mph - N/A   Haze
12:37 PM 40.8 °F 35.6 °F 32.0 °F 71% 29.59 in 5.0 mi SW 8.1 mph - N/A   Haze
12:58 PM 42.3 °F 37.9 °F 32.0 °F 67% 29.58 in 7.0 mi WSW 6.9 mph - N/A   Clear
1:17 PM 43.0 °F 38.2 °F 32.0 °F 65% 29.56 in 7.0 mi SW 8.1 mph - N/A   Clear
1:37 PM 42.3 °F 37.3 °F 32.0 °F 67% 29.55 in 7.0 mi SW 8.1 mph - N/A   Clear
1:57 PM 44.4 °F 39.0 °F 32.2 °F 62% 29.54 in 10.0 mi SW 10.4 mph - N/A   Clear
2:17 PM 45.5 °F 39.6 °F 32.4 °F 60% 29.53 in 10.0 mi SW 12.7 mph 19.6 mph N/A   Clear
2:37 PM 45.0 °F 38.5 °F 32.2 °F 61% 29.51 in 10.0 mi WSW 13.8 mph 21.9 mph N/A   Clear
2:57 PM 44.2 °F 37.3 °F 32.2 °F 63% 29.50 in 10.0 mi SW 15.0 mph 26.5 mph N/A   Clear
3:17 PM 44.6 °F 37.4 °F 32.2 °F 62% 29.49 in 10.0 mi WSW 16.1 mph 23.0 mph N/A   Clear
3:37 PM 44.6 °F 37.8 °F 32.2 °F 62% 29.48 in 10.0 mi SW 15.0 mph 23.0 mph N/A   Clear
3:57 PM 44.8 °F 38.7 °F 32.2 °F 61% 29.47 in 10.0 mi SW 12.7 mph 21.9 mph N/A   Clear
4:17 PM 45.0 °F 38.2 °F 32.2 °F 61% 29.46 in 10.0 mi SW 15.0 mph 23.0 mph N/A   Clear
4:38 PM 45.3 °F 38.7 °F 32.2 °F 60% 29.46 in 10.0 mi SW 15.0 mph 21.9 mph N/A   Clear
4:57 PM 45.7 °F 39.8 °F 32.2 °F 59% 29.47 in 10.0 mi WSW 12.7 mph - N/A   Clear
5:17 PM 46.4 °F 40.7 °F 32.2 °F 58% 29.46 in 10.0 mi WSW 12.7 mph - N/A   Clear
5:38 PM 46.4 °F 39.8 °F 32.2 °F 58% 29.46 in 10.0 mi WSW 16.1 mph 20.7 mph N/A   Clear
5:57 PM 46.2 °F 39.0 °F 32.4 °F 58% 29.46 in 10.0 mi WSW 18.4 mph 24.2 mph N/A   Clear
6:17 PM 45.5 °F 38.1 °F 32.4 °F 60% 29.46 in 10.0 mi WSW 18.4 mph 23.0 mph N/A   Clear
6:38 PM 44.4 °F 37.2 °F 32.4 °F 63% 29.47 in 10.0 mi WSW 16.1 mph 24.2 mph N/A   Clear
6:57 PM 43.9 °F 36.5 °F 32.4 °F 64% 29.48 in 10.0 mi WSW 16.1 mph 23.0 mph N/A   Clear
7:17 PM 43.3 °F 36.1 °F 32.4 °F 65% 29.49 in 10.0 mi WSW 15.0 mph 23.0 mph N/A   Clear
7:38 PM 42.8 °F 35.8 °F 32.4 °F 67% 29.50 in 10.0 mi WSW 13.8 mph 19.6 mph N/A   Clear
7:57 PM 42.8 °F 35.4 °F 32.4 °F 67% 29.50 in 10.0 mi WSW 15.0 mph 21.9 mph N/A   Clear
8:17 PM 42.8 °F 35.1 °F 32.5 °F 67% 29.51 in 10.0 mi WSW 16.1 mph 20.7 mph N/A   Clear
8:38 PM 42.8 °F 35.8 °F 32.5 °F 67% 29.52 in 10.0 mi WSW 13.8 mph - N/A   Clear
8:57 PM 42.4 °F 35.3 °F 32.5 °F 68% 29.52 in 10.0 mi West 13.8 mph 19.6 mph N/A   Clear
9:18 PM 42.1 °F 35.2 °F 32.5 °F 69% 29.53 in 10.0 mi West 12.7 mph 20.7 mph N/A   Clear
9:37 PM 41.9 °F 35.0 °F 32.5 °F 69% 29.54 in 10.0 mi West 12.7 mph 19.6 mph N/A   Clear
9:57 PM 41.5 °F 35.0 °F 32.5 °F 70% 29.54 in 10.0 mi West 11.5 mph - N/A   Clear
10:18 PM 41.5 °F 34.6 °F 32.5 °F 70% 29.55 in 10.0 mi West 12.7 mph - N/A   Clear
10:37 PM 41.5 °F 34.2 °F 32.5 °F 70% 29.55 in 10.0 mi West 13.8 mph 17.3 mph N/A   Clear
10:57 PM 41.0 °F 33.9 °F 32.4 °F 71% 29.56 in 10.0 mi West 12.7 mph 17.3 mph N/A   Clear
11:18 PM 40.5 °F 33.6 °F 32.5 °F 73% 29.57 in 10.0 mi West 11.5 mph - N/A   Clear
11:37 PM 40.6 °F 33.8 °F 32.5 °F 73% 29.58 in 10.0 mi West 11.5 mph - N/A   Clear
11:57 PM 40.5 °F 34.1 °F 32.5 °F 73% 29.58 in 10.0 mi WSW 10.4 mph - N/A   Clear